This is the latest recevied weather packets stored in our database for station/object N1ICS-1. If no packets are shown the sender has not sent any weather packets the latest 10 day(s).
| Time | Temp. | Humidity | Pressure | Rain* | Wind** | Luminosity | Snow |
|---|---|---|---|---|---|---|---|
| 1777901701 | 15.56° C | 70% | 1008.5 hPa | 0 mm | - | 509 W/m² | - |
| 1777901402 | 15.56° C | 70% | 1008.5 hPa | 0 mm | - | 483 W/m² | - |
| 1777901102 | 15° C | 72% | 1008.6 hPa | 0 mm | - | 470 W/m² | - |
| 1777900802 | 15° C | 71% | 1008.6 hPa | 0 mm | - | 440 W/m² | - |
| 1777900502 | 15° C | 71% | 1008.8 hPa | 0 mm | - | 423 W/m² | - |
| 1777900202 | 14.44° C | 71% | 1008.7 hPa | 0 mm | - | 401 W/m² | - |
| 1777899902 | 14.44° C | 73% | 1008.8 hPa | 0 mm | - | 380 W/m² | - |
| 1777899603 | 13.89° C | 73% | 1009 hPa | 0 mm | - | 362 W/m² | - |
| 1777899302 | 13.89° C | 74% | 1008.9 hPa | 0 mm | - | 343 W/m² | - |
| 1777899002 | 13.89° C | 74% | 1008.8 hPa | 0 mm | - | 323 W/m² | - |
| 1777898702 | 13.33° C | 75% | 1009.1 hPa | 0 mm | - | 302 W/m² | - |
| 1777898402 | 13.33° C | 75% | 1009.1 hPa | 0 mm | - | 285 W/m² | - |
| 1777898101 | 12.78° C | 76% | 1009.1 hPa | 0 mm | - | 266 W/m² | - |
| 1777897801 | 12.78° C | 76% | 1009.1 hPa | 0 mm | - | 251 W/m² | - |
| 1777897502 | 12.22° C | 77% | 1009.2 hPa | 0 mm | - | 233 W/m² | - |
| 1777897202 | 12.22° C | 77% | 1009.1 hPa | 0 mm | - | 215 W/m² | - |
| 1777896902 | 11.67° C | 77% | 1009 hPa | 0 mm | - | 198 W/m² | - |
| 1777896602 | 11.67° C | 78% | 1009.2 hPa | 0 mm | - | 181 W/m² | - |
| 1777896302 | 11.67° C | 78% | 1008.9 hPa | 0 mm | - | 167 W/m² | - |
| 1777896002 | 11.11° C | 79% | 1009.1 hPa | 0 mm | - | 153 W/m² | - |
| 1777895702 | 11.11° C | 79% | 1009 hPa | 0 mm | - | 141 W/m² | - |
| 1777895402 | 11.11° C | 80% | 1009 hPa | 0 mm | - | 128 W/m² | - |
| 1777895102 | 10.56° C | 81% | 1008.9 hPa | 0 mm | - | 116 W/m² | - |
| 1777894802 | 10.56° C | 80% | 1009 hPa | 0 mm | - | 104 W/m² | - |
| 1777894501 | 10° C | 80% | 1009 hPa | 0 mm | - | 90 W/m² | - |
* Rain latest hour (hover to see other rain measurements)
** Current wind speed in m/s (hover to see current wind gust speed)